Location: M?digepalle
(16.1753°N, 80.3496°E)
Time: 08:52:14
(UTC+00:00)

Cosmos 2322 Rocket - Pass Details

Date: 29 October 2020
Orbit: 832 x 851 km, 71.0° (Epoch: 28 November)

Event Time Altitude Azimuth Distance (km) Brightness Sun altitude
Rises 12:50:07 0° 151° (SSE) 3,393 5.2 -10.3°
Reaches altitude 10° 12:54:39 10° 117° (ESE) 2,464 4.2 -11.4°
Enters shadow 12:55:35 11° 107° (ESE) 2,400 4.0 -11.6°
